EW0844 Weather Reports


time (UTC)temp
C
wind
direction
speed
KPH
gust
KPH
rain 1hr
cm
rain 24hr
cm
rain mn
cm
humidity
%
barometer
mb
20200226015106 3 250 0.0 11.3 0.00 0.13 0.05 85 999.1
20200226013606 6 257 1.6 24.1 0.00 0.05 0.05 80 1000.0
20200226012106 6 257 1.6 24.1 0.00 0.05 0.05 80 1000.0
20200226010609 6 257 1.6 24.1 0.00 0.05 0.05 80 1000.0
20200226005106 6 257 1.6 24.1 0.00 0.05 0.05 80 1000.0
20200226003607 3 225 0.0 14.5 0.05 0.13 0.05 85 1000.3
20200225230607 6 245 1.6 11.3 0.00 0.05 0.00 80 1000.1
20200225225110 6 255 1.6 8.0 0.00 0.05 0.05 80 999.9
20200225223609 6 252 0.0 4.8 0.00 0.05 0.05 81 1000.0
20200225220610 5 317 1.6 8.0 0.00 0.05 0.05 83 1000.4
20200225215107 5 234 0.0 11.3 0.00 0.05 0.05 85 1000.6
20200225213606 10 234 0.0 1.6 0.00 0.00 0.05 61 1003.5
20200225212107 5 238 0.0 0.0 0.00 0.05 0.05 83 1000.8
20200225210606 10 300 0.0 11.3 0.00 0.00 0.05 57 1004.0
20200225195107 9 228 0.0 0.0 0.00 0.03 0.05 66 1005.8
20200225193607 5 248 0.0 0.0 0.00 0.03 0.05 85 1007.1
20200225192107 8 250 0.0 1.6 0.00 0.03 0.05 67 1006.3
20200225185106 3 249 0.0 0.0 0.00 0.03 0.05 95 1011.8
20200225180607 7 259 0.0 19.3 0.00 0.03 0.00 73 1003.4
20200225170607 8 235 0.0 8.0 0.00 0.03 0.00 67 1003.1
20200225163607 5 248 4.8 0.0 0.00 0.03 0.00 84 1007.0
20200225153607 9 285 0.0 16.1 0.00 0.03 0.00 62 1003.0
20200225142107 10 249 0.0 8.0 0.00 0.03 0.00 59 1003.7
20200225140606 3 249 0.0 0.0 0.00 0.03 0.00 95 1011.8
20200225135107 10 228 0.0 8.0 0.00 0.03 0.00 59 1004.3
20200225133606 10 270 1.6 11.3 0.00 0.03 0.00 57 1004.0
20200225132107 3 249 1.6 0.0 0.00 0.03 0.00 95 1011.8
20200225120606 10 222 0.0 6.4 0.00 0.10 0.00 62 1004.8
20200225115106 3 249 0.0 0.0 0.00 0.10 0.00 95 1011.8
20200225113606 9 247 3.2 9.7 0.00 0.10 0.00 64 1005.5
20200225110606 9 228 0.0 1.6 0.00 0.10 0.00 66 1006.0
20200225103606 8 239 0.0 9.7 0.00 0.10 0.00 65 1006.2
20200225095106 6 248 0.0 0.0 0.00 0.10 0.00 84 1006.9
20200225093606 6 248 0.0 0.0 0.00 0.10 0.00 83 1006.9
20200225090606 5 248 0.0 0.0 0.00 0.10 0.00 85 1007.0
20200225083606 3 249 0.0 0.0 0.00 0.10 0.00 95 1011.8
20200225075106 3 249 0.0 0.0 0.00 0.10 0.00 95 1011.8
20200225072106 4 221 0.0 0.0 0.00 0.10 0.00 87 1007.8
20200225070606 3 249 0.0 0.0 0.00 0.10 0.00 95 1011.8
20200225065106 3 221 0.0 0.0 0.00 0.10 0.00 87 1007.8
20200225063606 3 221 0.0 0.0 0.00 0.10 0.00 87 1007.7
20200225060606 3 215 0.0 0.0 0.00 0.10 0.00 86 1007.9
20200225045106 3 249 0.0 0.0 0.00 0.23 0.00 95 1011.8
20200225043606 3 249 0.0 0.0 0.00 0.23 0.00 95 1011.8
20200225035112 3 249 0.0 0.0 0.00 0.51 0.00 95 1011.8
20200225030606 3 249 0.0 0.0 0.00 0.51 0.00 95 1011.8
20200225025107 3 249 0.0 0.0 0.00 0.53 0.00 95 1011.8
20200225023606 3 249 0.0 0.0 0.00 0.53 0.00 95 1011.8
20200225022106 3 249 0.0 0.0 0.00 0.53 0.00 95 1011.8
20200225020607 3 249 0.0 0.0 0.00 0.53 0.00 95 1011.8